This demonstration page uses our WeatherBlox Daily Observations layout. Learn more.

Left ArrowRight Arrow

Hourly Observations for June 26, 2021

Temp ( °F °C ) Dew Point ( °F °C ) Humidity (%) Winds ( mph kmh ) Pressure ( in mb ) Visibility ( mi km ) Precip ( " mm )
12:53 am 00:53 Mostly Cloudy 62 16.7 50 10 65 65 WSW 6 9 30.00 1016 10 16 N/A
1:53 am 01:53 Clear 59 15 50 10 72 72 W 6 9 30.01 1016 10 16 N/A
2:53 am 02:53 Mostly Cloudy 57 13.9 50 10 78 78 WSW 6 9 30.01 1016 10 16 N/A
3:53 am 03:53 Cloudy 58 14.4 51 10.6 78 78 SW 7 11 30.01 1016 10 16 N/A
4:53 am 04:53 Cloudy 60 15.6 52 11.1 75 75 WSW 6 9 30.02 1017 10 16 N/A
5:53 am 05:53 Partly Cloudy 61 16.1 52 11.1 72 72 W 7 11 30.05 1018 10 16 N/A
6:53 am 06:53 Mostly Sunny 66 18.9 53 11.7 63 63 WNW 9 15 30.06 1018 10 16 N/A
7:53 am 07:53 Sunny 72 22.2 53 11.7 52 52 N 12 19 30.08 1019 10 16 N/A
8:53 am 08:53 Sunny 75 23.9 51 10.6 43 43 N 13 20 30.09 1019 10 16 N/A
9:53 am 09:53 Sunny 78 25.6 50 10 37 37 NNW 13 20 30.09 1019 10 16 N/A
10:53 am 10:53 Mostly Cloudy 78 25.6 47 8.3 33 33 NNW 15 24 30.09 1019 10 16 N/A
11:53 am 11:53 Mostly Cloudy 79 26.1 49 9.4 35 35 N 15 24 30.10 1019 10 16 N/A
12:53 pm 12:53 Mostly Cloudy 83 28.3 48 8.9 30 30 NNW 21 33 30.09 1019 10 16 N/A
1:53 pm 13:53 Partly Cloudy 84 28.9 47 8.3 27 27 N 14 22 30.08 1019 10 16 N/A
3:53 pm 15:53 Partly Cloudy 88 31.1 48 8.9 25 25 NNW 13 20 30.05 1018 10 16 N/A
4:53 pm 16:53 Mostly Cloudy 87 30.6 46 7.8 24 24 NNW 17 28 30.03 1017 10 16 N/A
5:53 pm 17:53 Partly Cloudy 89 31.7 46 7.8 23 23 NNW 18 30 30.01 1016 10 16 N/A
6:53 pm 18:53 Mostly Cloudy 87 30.6 46 7.8 24 24 NNW 15 24 30.00 1016 10 16 N/A
7:53 pm 19:53 Mostly Cloudy 86 30 48 8.9 27 27 NNW 16 26 30.00 1016 10 16 N/A
8:53 pm 20:53 Mostly Cloudy 83 28.3 49 9.4 31 31 N 10 17 30.01 1016 10 16 N/A
9:53 pm 21:53 Mostly Cloudy 76 24.4 52 11.1 43 43 ENE 3 6 30.02 1017 10 16 N/A
10:53 pm 22:53 Mostly Clear 69 20.6 52 11.1 55 55 WSW 3 6 30.03 1017 10 16 N/A
11:53 pm 23:53 Mostly Cloudy 65 18.3 52 11.1 63 63 WSW 7 11 30.04 1017 10 16 N/A

Powered by AerisWeather